[[{"header":{"parameterUnit":"m.s-1","parameterCategory":2,"la1":30.2991,"la2":30.254,"lo1":-89.0895,"lo2":-89.0444,"dy":0.0017,"dx":0.0017,"nx":28,"ny":28,"refTime":"2023-08-09T03:00:00:Z","depth":"0","parameterNumber":2,"parameterNumberName":"U-component_of_CURRENTS"},"data":[0,0,0,0,0,0,0,0,0,0,0,0,0,0,0,0,0,0,0,0,0,0,0,0,0,0,0,0,0,0,0,0,0,0,0,0,0,0,0,0,0,0,0,0,0,0,0,0,0,0,0,0,0,0,0,0,0,0,0.2278,0.2278,0,0.2377,0.2378,0.238,0.2464,0.2465,0.2465,0.2466,0.2508,0.2509,0.251,0,0,0,0,0,0,0,0,0,0,0,0,0,0.2283,0.2282,0.2277,0.2278,0.2279,0.2376,0.2378,0.238,0.2464,0.2465,0.2465,0.2466,0.2508,0.2509,0.251,0,0,0,0,0,0,0,0,0,0,0,0,0,0.2326,0.2282,0.2277,0.2329,0.2334,0.2376,0.2378,0.2381,0.2464,0.2465,0.2465,0.2466,0.2508,0.2509,0.251,0.2502,0,0,0.2513,0.2513,0,0,0,0,0,0,0,0,0.2323,0.2326,0.2321,0.2326,0.2331,0.2405,0.2396,0.2417,0.2464,0.242,0.2466,0.2466,0.2465,0.2469,0.2494,0.2504,0.2505,0.2513,0.2514,0.2514,0.2514,0,0,0,0,0,0,0,0.232,0.2323,0.2322,0.2321,0.2328,0.2389,0.2395,0.2401,0.244,0.2424,0.2429,0.2432,0.2468,0.2493,0.2495,0.2506,0.2513,0.2514,0.2515,0.2515,0.255,0.255,0,0,0,0,0,0,0.229,0.2319,0.2318,0.2324,0.2323,0.2387,0.2395,0.2384,0.2441,0.2449,0.2431,0.2435,0.2491,0.2494,0.2497,0.2521,0.2514,0.2515,0.2516,0.255,0.255,0.255,0,0,0,0,0,0,0.229,0.2288,0.2314,0.2321,0.2328,0.2385,0.2374,0.2386,0.2406,0.2446,0.2455,0.2437,0.2492,0.2496,0.2487,0.2522,0.2516,0.2516,0.2549,0.255,0.255,0.2549,0,0,0,0,0,0,0.2289,0.2287,0.2276,0.2318,0.2326,0.2329,0.2373,0.2387,0.2404,0.2411,0.2454,0.246,0.2492,0.2485,0.2488,0.2523,0.2517,0.2549,0.2549,0.255,0.2548,0.2549,0.255,0,0,0,0,0,0.2289,0.2279,0.2275,0.2275,0.2306,0.2328,0.2338,0.2386,0.2403,0.2408,0.2428,0.2458,0.2493,0.2484,0.2488,0.2525,0.2549,0.2549,0.255,0.2548,0.2549,0.255,0,0,0,0,0,0,0.2283,0.2287,0.2284,0.2276,0.2288,0.234,0.2356,0.2373,0.2397,0.2403,0.2438,0.2445,0.2465,0.2476,0.2467,0.2537,0.2535,0.2536,0.2533,0.2534,0.2534,0.2508,0.2518,0,0,0,0,0,0.2268,0.2255,0.2269,0.2258,0.2266,0.2302,0.2318,0.2341,0.2365,0.2379,0.2405,0.2437,0.2473,0.2482,0.2511,0.2522,0.2491,0.2555,0.2556,0.2556,0.2537,0.2528,0.2525,0.2553,0.2553,0.2553,0,0,0.2261,0.226,0.2253,0.2254,0.2277,0.2299,0.2316,0.2333,0.2356,0.2374,0.2408,0.2433,0.2473,0.2508,0.252,0.2519,0.2524,0.2557,0.2557,0.2537,0.2528,0.2525,0.2523,0.2553,0.2553,0.2553,0,0,0.2251,0.224,0.2233,0.2244,0.2258,0.2287,0.2282,0.2318,0.234,0.2354,0.2393,0.2406,0.246,0.2493,0.252,0.2527,0.2529,0.2566,0.2548,0.254,0.2537,0.2534,0.2452,0.2442,0.2566,0.2566,0.2566,0,0.2243,0.2232,0.2236,0.2243,0.2257,0.2278,0.2289,0.2319,0.2345,0.2345,0.2363,0.2433,0.2455,0.2502,0.2516,0.2529,0.2503,0.2545,0.2539,0.2536,0.2533,0.245,0.2439,0.2566,0.2566,0.2566,0.2566,0,0.2241,0.2232,0.2235,0.2248,0.2265,0.2273,0.2307,0.2316,0.234,0.236,0.239,0.2424,0.2456,0.2491,0.2507,0.2522,0.2499,0.254,0.2533,0.253,0.2442,0.2431,0.2566,0.2566,0.2566,0.2566,0,0,0.2211,0.2228,0.2226,0.2228,0.2264,0.2275,0.2305,0.2324,0.2325,0.2366,0.2369,0.2438,0.2439,0.2465,0.2501,0.25,0.2442,0.2511,0.251,0.2419,0.2372,0.2256,0.2232,0.2499,0.2498,0.2497,0.2303,0,0.2203,0.2204,0.2226,0.2241,0.2246,0.2275,0.2299,0.2316,0.2333,0.2338,0.2375,0.24,0.2442,0.2453,0.2461,0.2477,0.242,0.2487,0.2396,0.2391,0.2283,0.2219,0.2132,0.1946,0.2292,0.229,0.2288,0,0.2187,0.219,0.2189,0.2213,0.2221,0.2236,0.2251,0.2277,0.229,0.2297,0.2322,0.235,0.2372,0.2396,0.2384,0.2436,0.2373,0.2365,0.2358,0.2242,0.2255,0.2014,0.1912,0.1894,0.2271,0.2272,0.2273,0,0.2134,0.2164,0.2155,0.2164,0.22,0.2198,0.2225,0.2243,0.2246,0.2258,0.2245,0.2297,0.2296,0.23,0.2296,0.2334,0.2249,0.2298,0.2106,0.2095,0.1993,0.1975,0.1854,0.2202,0.2202,0.2203,0.2204,0,0.2088,0.2088,0.2123,0.2109,0.2104,0.2154,0.2142,0.2162,0.2179,0.2155,0.2213,0.2193,0.2274,0.2254,0.2253,0.2142,0.2205,0.2056,0.2037,0.1985,0.1969,0.1929,0.1927,0.2196,0.2197,0.2199,0.22,0,0.2006,0.2029,0.2025,0.2057,0.2062,0.2056,0.2086,0.2075,0.2102,0.2069,0.207,0.2096,0.2082,0.2125,0.2097,0.2038,0.1898,0.19,0.1796,0.1767,0.1567,0.1568,0.1278,0.1266,0.1638,0.1634,0.1631,0,0.1953,0.1944,0.1964,0.1955,0.1959,0.1965,0.1958,0.2011,0.2001,0.1995,0.1964,0.1945,0.1907,0.183,0.1786,0.1712,0.1713,0.1498,0.1543,0.1493,0.1483,0.1434,0.1447,0.1387,0.1382,0.1378,0.1375,0,0.1869,0.1882,0.1875,0.1843,0.183,0.183,0.1831,0.1818,0.1858,0.1833,0.1775,0.1747,0.1669,0.1569,0.1468,0.142,0.142,0.1401,0.1406,0.1289,0.1172,0.1176,0.1542,0.1337,0.1341,0.1344,0.1346,0.1347,0.1797,0.1781,0.176,0.1725,0.1709,0.167,0.1635,0.1648,0.1611,0.1536,0.1582,0.1471,0.1376,0.125,0.1211,0.1043,0.1103,0.0983,0.0982,0.0933,0.0931,0.1162,0.0922,0.0924,0.0925,0.0926,0.0927,0,0.1657,0.1662,0.1646,0.1581,0.1511,0.1545,0.1521,0.1465,0.1381,0.133,0.1271,0.11,0.099,0.0926,0.0751,0.0658,0.0662,0.0641,0.0612,0.0652,0.0898,0.0906,0.0587,0.0587,0.0587,0.0587,0.0587,0.0587,0.1581,0.1522,0.1525,0.1385,0.1342,0.1225,0.1194,0.1139,0.109,0.0922,0.0792,0.0768,0.0713,0.0565,0.0447,0.0428,0.0425,0.0311,0.0395,0.0647,0.0683,0.0717,0.0728,0.0376,0.0376,0.0144,0.0142,0.014]},{"header":{"parameterUnit":"m.s-1","parameterCategory":2,"la1":30.2991,"la2":30.254,"lo1":-89.0895,"lo2":-89.0444,"dy":0.0017,"dx":0.0017,"nx":28,"ny":28,"refTime":"2023-08-09T03:00:00:Z","depth":"0","parameterNumber":3,"parameterNumberName":"V-component_of_CURRENTS"},"data":[0,0,0,0,0,0,0,0,0,0,0,0,0,0,0,0,0,0,0,0,0,0,0,0,0,0,0,0,0,0,0,0,0,0,0,0,0,0,0,0,0,0,0,0,0,0,0,0,0,0,0,0,0,0,0,0,0,0,0.1875,0.1875,0,0.1905,0.1906,0.1907,0.1936,0.1936,0.1935,0.1935,0.1831,0.1829,0.1827,0,0,0,0,0,0,0,0,0,0,0,0,0,0.1804,0.1807,0.1875,0.1875,0.1874,0.1905,0.1906,0.1908,0.1936,0.1936,0.1935,0.1934,0.1832,0.1829,0.1826,0,0,0,0,0,0,0,0,0,0,0,0,0,0.1844,0.1807,0.1875,0.1885,0.1885,0.1905,0.1906,0.1908,0.1936,0.1936,0.1935,0.1934,0.1833,0.1829,0.1826,0.1822,0,0,0.1816,0.1814,0,0,0,0,0,0,0,0,0.1842,0.1848,0.1884,0.1884,0.1884,0.1907,0.1843,0.1869,0.1937,0.1928,0.1935,0.1934,0.1838,0.1834,0.1858,0.1817,0.1812,0.1815,0.1813,0.1812,0.1811,0,0,0,0,0,0,0,0.1839,0.1847,0.1897,0.1883,0.1883,0.1873,0.188,0.1849,0.1892,0.1928,0.1928,0.1916,0.1839,0.1861,0.1855,0.1811,0.1815,0.1812,0.181,0.1809,0.1748,0.1749,0,0,0,0,0,0,0.1819,0.1845,0.1896,0.1897,0.1849,0.1875,0.1882,0.1909,0.1896,0.1891,0.1916,0.1917,0.1868,0.1859,0.1851,0.1833,0.1812,0.1809,0.1807,0.1748,0.1748,0.1749,0,0,0,0,0,0,0.1818,0.1825,0.1895,0.1861,0.1868,0.1876,0.1906,0.191,0.1923,0.1886,0.1881,0.1923,0.1867,0.1856,0.1794,0.1829,0.1807,0.1804,0.1747,0.1748,0.1749,0.1803,0,0,0,0,0,0,0.1817,0.1826,0.1831,0.1861,0.1868,0.1884,0.1906,0.1911,0.1912,0.1913,0.1889,0.188,0.1865,0.1799,0.1791,0.1824,0.1801,0.1747,0.1748,0.1748,0.1801,0.1806,0.181,0,0,0,0,0,0.1815,0.1809,0.1832,0.1836,0.188,0.1882,0.1886,0.1895,0.1913,0.1909,0.1884,0.1881,0.18,0.1795,0.1785,0.1819,0.1746,0.1747,0.1748,0.1799,0.1805,0.181,0,0,0,0,0,0,0.1757,0.1812,0.1837,0.1844,0.1855,0.1883,0.1863,0.1892,0.1881,0.1869,0.1859,0.1847,0.1826,0.1798,0.1794,0.1805,0.1784,0.1783,0.1826,0.1831,0.1835,0.1799,0.1799,0,0,0,0,0,0.1754,0.1779,0.1815,0.1814,0.1816,0.1849,0.1849,0.1864,0.1857,0.1855,0.1841,0.1826,0.1828,0.1803,0.1791,0.1766,0.1745,0.179,0.1794,0.1798,0.1762,0.1773,0.1775,0.1752,0.1752,0.1752,0,0,0.1728,0.1757,0.1769,0.1804,0.1814,0.1816,0.1849,0.1839,0.1852,0.1838,0.1827,0.1834,0.1825,0.1819,0.1808,0.1792,0.1796,0.1799,0.1803,0.1764,0.1774,0.1776,0.1778,0.1752,0.1752,0.1752,0,0,0.1674,0.1716,0.1717,0.1731,0.174,0.1768,0.1765,0.1793,0.1813,0.1805,0.1823,0.1817,0.1809,0.1812,0.1817,0.1824,0.1829,0.1856,0.1835,0.1848,0.185,0.1851,0.1842,0.1841,0.1848,0.1849,0.1849,0,0.1626,0.1665,0.1706,0.1702,0.1717,0.1747,0.1751,0.1769,0.1775,0.179,0.1792,0.1817,0.1805,0.182,0.1834,0.1833,0.1839,0.1823,0.1855,0.1855,0.1855,0.1845,0.1844,0.1851,0.1851,0.1851,0.185,0,0.159,0.1612,0.1599,0.1636,0.1654,0.1651,0.1692,0.1702,0.174,0.1768,0.1792,0.1789,0.1805,0.183,0.183,0.1852,0.1856,0.1872,0.1843,0.1861,0.1849,0.1847,0.1855,0.1854,0.1853,0.1853,0,0,0.149,0.1569,0.1565,0.1593,0.1633,0.1646,0.1662,0.1703,0.1727,0.1737,0.178,0.1788,0.1807,0.181,0.1836,0.1832,0.1852,0.1853,0.1852,0.1843,0.1877,0.1812,0.1804,0.1898,0.1897,0.1897,0.1874,0,0.1444,0.1467,0.1529,0.1542,0.1553,0.1616,0.1642,0.1677,0.1721,0.1754,0.1772,0.1803,0.1801,0.1831,0.183,0.1873,0.1848,0.1855,0.1857,0.1855,0.1797,0.1799,0.1791,0.1763,0.1871,0.1871,0.1871,0,0.1375,0.1418,0.1443,0.1539,0.1553,0.1561,0.1641,0.1673,0.1719,0.1757,0.178,0.1815,0.1828,0.1826,0.1842,0.1863,0.1849,0.1852,0.1852,0.1757,0.1785,0.1759,0.1755,0.1769,0.1867,0.1868,0.1868,0,0.1282,0.1353,0.1393,0.1414,0.1508,0.1533,0.1586,0.1647,0.1684,0.1745,0.1773,0.1816,0.1832,0.1846,0.1856,0.1868,0.1863,0.1888,0.1789,0.1785,0.1751,0.1743,0.1751,0.184,0.184,0.184,0.184,0,0.1208,0.1229,0.1346,0.1349,0.1387,0.1481,0.1519,0.1572,0.165,0.1671,0.1754,0.1768,0.1837,0.1857,0.1865,0.1822,0.1869,0.1759,0.1768,0.177,0.1765,0.1751,0.1797,0.1839,0.1839,0.184,0.184,0,0.1084,0.1159,0.1183,0.1294,0.1323,0.1338,0.1451,0.1483,0.157,0.1603,0.1622,0.1724,0.1758,0.1805,0.1829,0.1805,0.1812,0.1748,0.1731,0.1736,0.1646,0.1696,0.1684,0.1764,0.1644,0.1642,0.164,0,0.1036,0.1036,0.1112,0.1121,0.116,0.1217,0.1254,0.1387,0.1433,0.1553,0.1557,0.162,0.1646,0.1678,0.1692,0.1691,0.1731,0.1626,0.1614,0.1609,0.1675,0.1712,0.1786,0.1607,0.1605,0.1604,0.1603,0,0.0952,0.0962,0.1,0.1008,0.1031,0.1073,0.1147,0.1174,0.1325,0.1367,0.1423,0.1463,0.1525,0.1551,0.1564,0.1558,0.1683,0.159,0.1613,0.1643,0.166,0.1753,0.1646,0.159,0.1592,0.1593,0.1593,0.1594,0.0882,0.0883,0.0922,0.0927,0.0938,0.094,0.095,0.1047,0.1101,0.1184,0.1274,0.1325,0.1406,0.1445,0.1457,0.1466,0.1556,0.1467,0.1528,0.1563,0.1634,0.1464,0.1401,0.1401,0.1401,0.1402,0.1402,0,0.0809,0.0848,0.0858,0.0852,0.0819,0.0855,0.0896,0.09,0.0932,0.1033,0.1094,0.1193,0.1245,0.1313,0.1361,0.1408,0.1491,0.1455,0.1538,0.1623,0.1481,0.1471,0.1388,0.1388,0.1388,0.1388,0.1388,0.1388,0.0788,0.0789,0.0813,0.0758,0.0737,0.0697,0.0695,0.0702,0.0763,0.0827,0.0921,0.1071,0.1218,0.1264,0.1358,0.1406,0.1563,0.155,0.1658,0.1568,0.1575,0.1582,0.158,0.1521,0.1521,0.1804,0.1807,0.1809]}],[{"header":{"parameterUnit":"m.s-1","parameterCategory":2,"la1":30.2991,"la2":30.254,"lo1":-89.0895,"lo2":-89.0444,"dy":0.0017,"dx":0.0017,"nx":28,"ny":28,"refTime":"2023-08-09T03:00:00:Z","depth":"2","parameterNumber":2,"parameterNumberName":"U-component_of_CURRENTS"},"data":[0,0,0,0,0,0,0,0,0,0,0,0,0,0,0,0,0,0,0,0,0,0,0,0,0,0,0,0,0,0,0,0,0,0,0,0,0,0,0,0,0,0,0,0,0,0,0,0,0,0,0,0,0,0,0,0,0,0,0.1109,0.1107,0,0.0946,0.0944,0.0943,0.1086,0.1092,0.1098,0.1103,0.1315,0.1315,0.1316,0,0,0,0,0,0,0,0,0,0,0,0,0,0.1423,0.1417,0.1109,0.1107,0.1104,0.0946,0.0944,0.0942,0.1085,0.1092,0.1099,0.1105,0.1315,0.1315,0.1316,0,0,0,0,0,0,0,0,0,0,0,0,0,0.128,0.1416,0.111,0.1154,0.1156,0.0946,0.0944,0.0942,0.1084,0.1092,0.1101,0.1108,0.1315,0.1315,0.1316,0.1154,0,0,0.1318,0.1318,0,0,0,0,0,0,0,0,0.1288,0.1269,0.115,0.115,0.1152,0.1042,0.1132,0.103,0.1082,0.1115,0.1103,0.1113,0.125,0.1256,0.1207,0.1164,0.1173,0.1318,0.1319,0.1319,0.1319,0,0,0,0,0,0,0,0.1298,0.1276,0.1049,0.1146,0.1148,0.114,0.113,0.1112,0.1148,0.1113,0.1122,0.1095,0.1255,0.1205,0.1214,0.1176,0.1318,0.1319,0.1319,0.132,0.0983,0.0974,0,0,0,0,0,0,0.1305,0.1284,0.1054,0.1043,0.1238,0.1128,0.1117,0.1072,0.114,0.1154,0.1088,0.1102,0.12,0.1213,0.1223,0.1257,0.1319,0.132,0.132,0.0992,0.0981,0.0971,0,0,0,0,0,0,0.1312,0.1285,0.106,0.1159,0.113,0.1114,0.1062,0.1064,0.1081,0.1116,0.1141,0.1111,0.1207,0.1222,0.1231,0.126,0.132,0.1321,0.1003,0.0989,0.0976,0.1186,0,0,0,0,0,0,0.1321,0.1288,0.1268,0.1158,0.1125,0.0992,0.1053,0.1055,0.1045,0.1065,0.1141,0.1166,0.1215,0.1228,0.1231,0.1262,0.1321,0.1015,0.0997,0.098,0.1191,0.1181,0.1172,0,0,0,0,0,0.1333,0.1273,0.1268,0.1241,0.1094,0.0991,0.0974,0.0993,0.1039,0.1041,0.107,0.1167,0.1116,0.1224,0.1229,0.1262,0.1024,0.1002,0.0982,0.1195,0.1183,0.1172,0,0,0,0,0,0,0.1365,0.1276,0.1272,0.1179,0.1117,0.1017,0.1,0.0994,0.1,0.1049,0.1099,0.1121,0.1139,0.108,0.1197,0.1064,0.1061,0.104,0.122,0.1208,0.1199,0.1306,0.1322,0,0,0,0,0,0.1358,0.1334,0.122,0.116,0.1124,0.1061,0.1025,0.1034,0.1007,0.1022,0.1075,0.1054,0.1018,0.1037,0.1006,0.0953,0.0885,0.0927,0.0918,0.0914,0.0972,0.0827,0.0818,0.0902,0.0902,0.0902,0,0,0.1358,0.1303,0.129,0.1173,0.1126,0.1032,0.1066,0.1023,0.101,0.1039,0.1078,0.1068,0.0986,0.0962,0.0953,0.0955,0.0826,0.0887,0.0888,0.0949,0.0805,0.08,0.0795,0.0887,0.089,0.0892,0,0,0.1328,0.1289,0.1254,0.1178,0.1105,0.1054,0.1048,0.0983,0.1046,0.1028,0.1031,0.1058,0.0983,0.098,0.0944,0.0823,0.0794,0.0729,0.0811,0.0669,0.0668,0.0666,0.0533,0.0518,0.0718,0.0719,0.0719,0,0.1323,0.123,0.1225,0.1132,0.105,0.1062,0.0955,0.0985,0.0958,0.098,0.1077,0.096,0.1013,0.0917,0.0931,0.0848,0.0713,0.0924,0.0684,0.068,0.0675,0.0539,0.052,0.0726,0.0726,0.0725,0.0724,0,0.1257,0.1152,0.1113,0.1009,0.094,0.0854,0.0845,0.0861,0.0938,0.0967,0.0986,0.1031,0.0945,0.0954,0.0977,0.0892,0.0789,0.0728,0.0789,0.0685,0.0539,0.0517,0.0737,0.0734,0.0732,0.073,0,0,0.1308,0.1098,0.1087,0.0977,0.0852,0.078,0.0765,0.0724,0.0704,0.0842,0.0786,0.0918,0.0971,0.0922,0.0911,0.0903,0.0851,0.0836,0.0825,0.0839,0.0496,0.0393,0.0357,0.0727,0.0724,0.0722,0.0404,0,0.1242,0.102,0.0953,0.0756,0.0617,0.0577,0.0546,0.0552,0.0599,0.0577,0.0732,0.0719,0.0929,0.0898,0.0927,0.0823,0.0798,0.0942,0.0475,0.0463,0.0499,0.0331,0.0507,0.0233,0.0381,0.0377,0.0374,0,0.1202,0.1043,0.0825,0.0573,0.0521,0.0464,0.0345,0.0317,0.0325,0.0376,0.0419,0.0464,0.0525,0.0683,0.0607,0.0654,0.0626,0.0611,0.0592,0.0434,0.0319,0.0344,0.0186,0.0336,0.0339,0.0342,0.0344,0,0.124,0.0949,0.0774,0.0681,0.0442,0.0414,0.0346,0.0311,0.0275,0.0253,0.0196,0.0229,0.0232,0.022,0.0324,0.039,0.0181,0.02,0.0083,0.0072,0.0109,0.0105,0.0136,0.0136,0.0137,0.0138,0.0139,0,0.1163,0.1009,0.0804,0.071,0.057,0.0431,0.033,0.0286,0.0165,0.0078,0.0135,0.0035,0.013,0.0041,0.0126,0.0028,-0.0008,0.0092,-0.0022,0.0164,0.017,0.0179,0.0188,0.0126,0.0128,0.0131,0.0133,0,0.1191,0.1035,0.0847,0.0641,0.059,0.0537,0.0342,0.0261,0.016,-0.0011,-0.0021,-0.0141,-0.0239,-0.0199,-0.0283,-0.0252,-0.0326,-0.0346,-0.0112,-0.019,-0.0298,-0.0277,-0.0584,-0.059,-0.0595,-0.06,-0.0604,0,0.116,0.107,0.0877,0.0818,0.0749,0.062,0.0543,0.0363,0.0195,-0.0107,-0.0229,-0.0375,-0.0487,-0.0679,-0.061,-0.0644,-0.0525,-0.0565,-0.0347,-0.0294,-0.0375,-0.0345,-0.0317,-0.0244,-0.0244,-0.0245,-0.0245,0,0.1107,0.1096,0.0923,0.0838,0.0781,0.0635,0.0455,0.0275,0.0007,-0.0165,-0.0459,-0.0577,-0.0722,-0.0701,-0.0764,-0.0732,-0.0548,-0.0587,-0.0669,-0.0087,-0.0,-0.007,-0.0049,-0.0249,-0.0249,-0.0248,-0.0248,-0.0248,0.1102,0.0993,0.0841,0.074,0.0726,0.0601,0.042,0.0201,-0.0079,-0.0457,-0.061,-0.0706,-0.071,-0.0719,-0.0696,-0.0622,-0.0689,-0.0579,-0.0566,-0.0556,-0.0458,-0.0385,-0.0688,-0.069,-0.0692,-0.0693,-0.0695,0,0.0947,0.081,0.0729,0.0604,0.0572,0.0623,0.0299,0.0061,-0.0242,-0.0401,-0.0626,-0.0592,-0.0604,-0.0532,-0.0413,-0.0486,-0.0342,-0.0448,-0.0181,-0.0182,-0.0181,-0.005,-0.018,-0.0179,-0.0177,-0.0176,0,0,0.0811,0.0613,0.0518,0.0396,0.0428,0.0329,0.0137,-0.0105,-0.0303,-0.0488,-0.0453,-0.0626,-0.0524,-0.0333,-0.0332,-0.0211,-0.0178,-0.0186,-0.0597,-0.0282,-0.0279,-0.0268,-0.0074,0,0,0,0,0]},{"header":{"parameterUnit":"m.s-1","parameterCategory":2,"la1":30.2991,"la2":30.254,"lo1":-89.0895,"lo2":-89.0444,"dy":0.0017,"dx":0.0017,"nx":28,"ny":28,"refTime":"2023-08-09T03:00:00:Z","depth":"2","parameterNumber":3,"parameterNumberName":"V-component_of_CURRENTS"},"data":[0,0,0,0,0,0,0,0,0,0,0,0,0,0,0,0,0,0,0,0,0,0,0,0,0,0,0,0,0,0,0,0,0,0,0,0,0,0,0,0,0,0,0,0,0,0,0,0,0,0,0,0,0,0,0,0,0,0,0.0313,0.0311,0,0.0048,0.0044,0.004,-0.0022,-0.0019,-0.0016,-0.0013,0.0126,0.0127,0.0128,0,0,0,0,0,0,0,0,0,0,0,0,0,0.0507,0.0504,0.0313,0.0311,0.0309,0.0049,0.0044,0.0039,-0.0022,-0.0019,-0.0015,-0.0011,0.0126,0.0127,0.0128,0,0,0,0,0,0,0,0,0,0,0,0,0,0.0338,0.0504,0.0314,0.0258,0.0251,0.005,0.0043,0.0037,-0.0023,-0.0018,-0.0014,-0.0009,0.0125,0.0127,0.0128,0.0042,0,0,0.0131,0.0132,0,0,0,0,0,0,0,0,0.0348,0.0329,0.0268,0.0261,0.0254,0.0063,0.0163,0.0064,-0.0024,0.0066,-0.0013,-0.0007,0.0148,0.0148,0.0062,0.0048,0.0054,0.0132,0.0132,0.0133,0.0133,0,0,0,0,0,0,0,0.036,0.0339,0.0194,0.0266,0.0257,0.0158,0.014,0.014,0.0081,0.0058,0.0057,0.0048,0.0146,0.006,0.0066,0.0056,0.0132,0.0133,0.0133,0.0134,-0.0069,-0.0075,0,0,0,0,0,0,0.0429,0.0351,0.0203,0.0188,0.0329,0.0153,0.0132,0.0108,0.0072,0.0072,0.0045,0.0047,0.0056,0.0065,0.0072,0.009,0.0133,0.0134,0.0135,-0.0063,-0.007,-0.0077,0,0,0,0,0,0,0.0433,0.0417,0.0214,0.0275,0.0245,0.0148,0.0119,0.0101,0.0063,0.0059,0.0065,0.0036,0.006,0.007,0.0127,0.0093,0.0134,0.0136,-0.0056,-0.0065,-0.0074,0.0054,0,0,0,0,0,0,0.0439,0.042,0.0423,0.028,0.0245,0.0124,0.0116,0.0093,0.0055,0.0056,0.0053,0.0066,0.0064,0.0125,0.0128,0.0096,0.0136,-0.0048,-0.006,-0.0071,0.0057,0.005,0.0044,0,0,0,0,0,0.0447,0.0424,0.0424,0.0407,0.0253,0.0124,0.0094,0.0031,0.0051,0.0017,0.0048,0.0069,0.0049,0.0126,0.0129,0.0096,-0.0042,-0.0057,-0.007,0.006,0.0051,0.0044,0,0,0,0,0,0,0.0463,0.0412,0.041,0.0362,0.0276,0.0121,0.0078,0.0048,0.0021,0.006,0.0067,0.0081,0.0115,0.0049,0.0132,-0.0027,-0.0027,-0.004,0.0069,0.0061,0.0055,0.0111,0.0137,0,0,0,0,0,0.0484,0.0481,0.0388,0.0347,0.0314,0.0206,0.0152,0.0118,0.0076,0.0063,0.0075,0.0048,0.0031,0.0022,0.0009,-0.0047,-0.0043,-0.0111,-0.0117,-0.0121,-0.0092,-0.0116,-0.0116,-0.0122,-0.0122,-0.0122,0,0,0.0483,0.0449,0.0449,0.0357,0.0279,0.0192,0.0181,0.0113,0.0072,0.0095,0.0079,0.009,0.0024,-0.0017,-0.0027,-0.0057,-0.0126,-0.0139,-0.0138,-0.0107,-0.0129,-0.0127,-0.0124,-0.0131,-0.013,-0.0128,0,0,0.0442,0.0443,0.0418,0.0342,0.0267,0.0208,0.021,0.0104,0.0102,0.0097,0.0088,0.0124,0.0047,0.0011,-0.0025,-0.0091,-0.0113,-0.0197,-0.0207,-0.023,-0.0225,-0.0221,-0.0195,-0.0189,-0.0254,-0.0254,-0.0254,0,0.043,0.038,0.0379,0.0295,0.0227,0.0227,0.0134,0.0111,0.0053,0.0069,0.0126,0.0043,0.0077,-0.0019,-0.004,-0.0078,-0.0122,-0.0131,-0.022,-0.0216,-0.0213,-0.0189,-0.0184,-0.0249,-0.025,-0.025,-0.0251,0,0.0355,0.0296,0.0257,0.0182,0.0115,0.0038,0.0012,0.0022,0.0071,0.0058,0.007,0.0091,0.0025,-0.0001,-0.0001,-0.0069,-0.0109,-0.0156,-0.0148,-0.0201,-0.0177,-0.0174,-0.0243,-0.0245,-0.0246,-0.0247,0,0,0.0366,0.0232,0.0224,0.0145,0.0048,-0.0022,-0.0031,-0.0062,-0.0056,-0.0014,-0.0046,0.0001,0.0025,-0.0022,-0.0073,-0.0082,-0.0018,-0.0131,-0.0134,-0.0013,-0.0075,0.0027,0.004,-0.0114,-0.0113,-0.0113,-0.0052,0,0.0294,0.0128,0.0094,-0.0057,-0.016,-0.0164,-0.0187,-0.0182,-0.0137,-0.0141,-0.0069,-0.0078,-0.0013,-0.0038,-0.0033,-0.0034,-0.0015,-0.0029,-0.0124,-0.0124,0.0051,0.0047,-0.008,-0.0027,-0.0048,-0.0048,-0.0047,0,0.0225,0.0129,-0.0039,-0.0187,-0.0223,-0.0271,-0.03,-0.0323,-0.0282,-0.0236,-0.0222,-0.02,-0.0177,-0.0117,-0.008,-0.0127,-0.0071,-0.0041,-0.0041,0.0023,-0.0016,0.0003,-0.002,-0.0041,-0.0042,-0.0042,-0.0043,0,0.0223,0.0028,-0.0097,-0.0166,-0.0303,-0.0311,-0.033,-0.0317,-0.0315,-0.0293,-0.0273,-0.0288,-0.0241,-0.0226,-0.0082,-0.0125,-0.0026,-0.0089,0.0064,0.0071,-0.006,-0.0063,-0.0025,-0.0025,-0.0025,-0.0025,-0.0026,0,0.0142,0.0041,-0.0092,-0.0156,-0.0249,-0.0323,-0.0361,-0.0351,-0.0356,-0.0352,-0.0318,-0.0308,-0.026,-0.02,-0.0133,0.0015,-0.0054,0.0109,0.0099,-0.0025,-0.0026,-0.0078,-0.0085,-0.0023,-0.0024,-0.0024,-0.0024,0,0.0132,0.0036,-0.0118,-0.0235,-0.0262,-0.0308,-0.0365,-0.0374,-0.0352,-0.0363,-0.0348,-0.0295,-0.0186,-0.0122,-0.0043,0.0021,0.0103,0.018,0.008,0.0061,0.0216,0.0213,0.0303,0.0307,0.031,0.0313,0.0316,0,0.0075,0.0008,-0.0143,-0.0196,-0.0237,-0.0302,-0.0318,-0.0342,-0.0376,-0.0332,-0.0347,-0.0224,-0.013,0.0047,0.0125,0.0239,0.0251,0.024,0.0185,0.0272,0.0252,0.0243,0.0235,0.0043,0.0043,0.0043,0.0043,0,-0.0028,-0.0047,-0.0168,-0.0236,-0.0277,-0.0333,-0.0373,-0.0428,-0.0436,-0.0395,-0.0333,-0.0236,-0.0037,0.0042,0.0238,0.0289,0.0194,0.0253,0.0318,0.0013,0.0041,0.0017,0.0014,0.0044,0.0044,0.0044,0.0043,0.0043,-0.0096,-0.0217,-0.0327,-0.0369,-0.0354,-0.0368,-0.0476,-0.046,-0.0482,-0.0444,-0.0358,-0.0176,-0.0153,0.0106,0.0237,0.0354,0.0313,0.0268,0.0259,0.0253,0.0246,0.0282,0.033,0.0332,0.0333,0.0334,0.0335,0,-0.0293,-0.0382,-0.045,-0.0514,-0.0467,-0.0393,-0.0522,-0.0592,-0.0589,-0.0409,-0.0294,-0.0219,-0.0078,0.0061,0.0207,0.0303,0.026,0.0354,0.019,0.0183,0.018,0.0165,0.023,0.0232,0.0234,0.0235,0,0,-0.0455,-0.0611,-0.0646,-0.0638,-0.056,-0.0573,-0.0663,-0.0663,-0.0637,-0.0442,-0.0281,-0.0195,-0.0106,-0.0035,0.0026,0.0155,0.0191,0.0204,0.0242,0.0024,0.0023,0.0046,0.0007,0,0,0,0,0]}],[{"header":{"parameterUnit":"m.s-1","parameterCategory":2,"la1":30.2991,"la2":30.254,"lo1":-89.0895,"lo2":-89.0444,"dy":0.0017,"dx":0.0017,"nx":28,"ny":28,"refTime":"2023-08-09T03:00:00:Z","depth":"4","parameterNumber":2,"parameterNumberName":"U-component_of_CURRENTS"},"data":[0,0,0,0,0,0,0,0,0,0,0,0,0,0,0,0,0,0,0,0,0,0,0,0,0,0,0,0,0,0,0,0,0,0,0,0,0,0,0,0,0,0,0,0,0,0,0,0,0,0,0,0,0,0,0,0,0,0,-0.084,-0.084,0,-0.0849,-0.085,-0.085,-0.0931,-0.0932,-0.0934,-0.0935,-0.1029,-0.103,-0.1031,0,0,0,0,0,0,0,0,0,0,0,0,0,-0.076,-0.0763,-0.084,-0.084,-0.0839,-0.0849,-0.085,-0.085,-0.093,-0.0932,-0.0934,-0.0936,-0.1029,-0.103,-0.1032,0,0,0,0,0,0,0,0,0,0,0,0,0,-0.079,-0.0764,-0.084,-0.0877,-0.088,-0.0849,-0.085,-0.0851,-0.093,-0.0932,-0.0934,-0.0937,-0.1028,-0.103,-0.1032,-0.0996,0,0,-0.1037,-0.1037,0,0,0,0,0,0,0,0,-0.0789,-0.0794,-0.0872,-0.0874,-0.0877,-0.0886,-0.0856,-0.0902,-0.0929,-0.0916,-0.0935,-0.0938,-0.0984,-0.099,-0.0993,-0.1001,-0.1005,-0.1037,-0.1038,-0.1039,-0.1039,0,0,0,0,0,0,0,-0.0787,-0.0793,-0.0849,-0.0871,-0.0874,-0.0847,-0.0856,-0.0864,-0.0943,-0.0918,-0.0922,-0.0914,-0.0988,-0.0991,-0.0996,-0.1006,-0.1037,-0.1038,-0.1039,-0.104,-0.1101,-0.1102,0,0,0,0,0,0,-0.078,-0.0792,-0.0849,-0.0849,-0.0832,-0.0847,-0.0856,-0.0885,-0.0941,-0.095,-0.0912,-0.0918,-0.0987,-0.0994,-0.0999,-0.1094,-0.1039,-0.104,-0.1041,-0.1101,-0.1101,-0.1102,0,0,0,0,0,0,-0.0779,-0.0786,-0.0848,-0.0814,-0.0819,-0.0846,-0.0878,-0.0884,-0.0925,-0.0935,-0.0947,-0.095,-0.0989,-0.0997,-0.104,-0.1093,-0.1041,-0.1042,-0.11,-0.1101,-0.1102,-0.1197,0,0,0,0,0,0,-0.0777,-0.0787,-0.0831,-0.0815,-0.0821,-0.0883,-0.0875,-0.0883,-0.0912,-0.092,-0.097,-0.0979,-0.0991,-0.1037,-0.1041,-0.1094,-0.1044,-0.1099,-0.11,-0.1101,-0.1193,-0.1201,-0.1208,0,0,0,0,0,-0.0775,-0.0813,-0.0834,-0.0841,-0.0874,-0.0885,-0.0888,-0.0914,-0.0912,-0.0955,-0.0967,-0.098,-0.1048,-0.1039,-0.1043,-0.1099,-0.1098,-0.11,-0.1101,-0.119,-0.1199,-0.1208,0,0,0,0,0,0,-0.079,-0.0823,-0.0847,-0.0894,-0.0915,-0.0898,-0.092,-0.0927,-0.0966,-0.0986,-0.0984,-0.0995,-0.1058,-0.1047,-0.1036,-0.1114,-0.1076,-0.1078,-0.1142,-0.1151,-0.1158,-0.1222,-0.1045,0,0,0,0,0,-0.0814,-0.0867,-0.0878,-0.092,-0.0926,-0.0927,-0.0938,-0.0968,-0.0978,-0.0999,-0.1012,-0.1029,-0.1056,-0.1081,-0.1103,-0.1136,-0.1157,-0.1172,-0.1179,-0.1186,-0.1238,-0.1281,-0.1299,-0.1107,-0.1107,-0.1107,0,0,-0.0831,-0.0851,-0.0885,-0.0929,-0.0934,-0.0958,-0.0943,-0.0982,-0.1016,-0.1,-0.1047,-0.1063,-0.107,-0.1124,-0.115,-0.113,-0.1248,-0.1188,-0.1194,-0.1244,-0.1285,-0.1304,-0.1321,-0.1108,-0.1107,-0.1107,0,0,-0.0856,-0.0906,-0.095,-0.0967,-0.1,-0.1009,-0.1026,-0.1038,-0.107,-0.1116,-0.1108,-0.116,-0.1179,-0.1208,-0.1219,-0.1273,-0.1288,-0.1269,-0.1366,-0.1406,-0.1423,-0.1439,-0.1485,-0.1504,-0.1271,-0.1271,-0.1271,0,-0.087,-0.0923,-0.0962,-0.0986,-0.0999,-0.103,-0.1064,-0.1092,-0.1123,-0.114,-0.1158,-0.1218,-0.123,-0.1294,-0.1331,-0.13,-0.1324,-0.1335,-0.1421,-0.1436,-0.1451,-0.1494,-0.1514,-0.1276,-0.1276,-0.1275,-0.1275,0,-0.0912,-0.0955,-0.0964,-0.1021,-0.1065,-0.1088,-0.1131,-0.1181,-0.1216,-0.123,-0.1318,-0.1353,-0.14,-0.1402,-0.14,-0.1499,-0.1484,-0.1428,-0.1408,-0.1477,-0.1517,-0.1536,-0.1283,-0.1281,-0.128,-0.1279,0,0,-0.0913,-0.0981,-0.0989,-0.1016,-0.1081,-0.1117,-0.1187,-0.1243,-0.129,-0.1359,-0.1424,-0.1501,-0.1539,-0.1557,-0.1563,-0.1617,-0.174,-0.159,-0.159,-0.1657,-0.185,-0.1548,-0.154,-0.17,-0.1704,-0.1707,-0.1835,0,-0.0918,-0.0976,-0.102,-0.1081,-0.1104,-0.1164,-0.1216,-0.1294,-0.1366,-0.1437,-0.1506,-0.1582,-0.1586,-0.165,-0.1709,-0.1743,-0.1797,-0.1712,-0.1757,-0.176,-0.1499,-0.1553,-0.172,-0.1849,-0.1854,-0.1857,-0.1859,0,-0.0933,-0.097,-0.1035,-0.1103,-0.1121,-0.1178,-0.1299,-0.1359,-0.1462,-0.1527,-0.1641,-0.1688,-0.1825,-0.1801,-0.1945,-0.1895,-0.1905,-0.1916,-0.1919,-0.1629,-0.1492,-0.1764,-0.1894,-0.1891,-0.1889,-0.1886,-0.1884,0,-0.0908,-0.0976,-0.1034,-0.1051,-0.1141,-0.1198,-0.1267,-0.1384,-0.1432,-0.1613,-0.1681,-0.1831,-0.1948,-0.2,-0.2027,-0.202,-0.2136,-0.2104,-0.1842,-0.1821,-0.2019,-0.2001,-0.2191,-0.219,-0.219,-0.219,-0.2189,0,-0.0873,-0.0913,-0.103,-0.104,-0.1105,-0.1211,-0.1309,-0.1387,-0.1522,-0.1552,-0.1738,-0.1762,-0.2013,-0.2069,-0.2075,-0.2002,-0.2169,-0.1892,-0.1835,-0.205,-0.2035,-0.2032,-0.2012,-0.2194,-0.2193,-0.2193,-0.2192,0,-0.0837,-0.0894,-0.0947,-0.1055,-0.108,-0.1154,-0.128,-0.1344,-0.1503,-0.1573,-0.1635,-0.1796,-0.1831,-0.1969,-0.2069,-0.2041,-0.1998,-0.1907,-0.2149,-0.2099,-0.1671,-0.1655,-0.1706,-0.1696,-0.1688,-0.1681,-0.1676,0,-0.081,-0.0841,-0.0943,-0.0962,-0.1006,-0.1119,-0.1158,-0.1309,-0.136,-0.1477,-0.1462,-0.1576,-0.1638,-0.1592,-0.1717,-0.1751,-0.1693,-0.1786,-0.1745,-0.1683,-0.1624,-0.162,-0.1615,-0.1663,-0.1661,-0.1659,-0.1657,0,-0.0752,-0.0814,-0.087,-0.0904,-0.0947,-0.0987,-0.1057,-0.1074,-0.1212,-0.1354,-0.1263,-0.1279,-0.1296,-0.1366,-0.1433,-0.141,-0.1812,-0.1702,-0.172,-0.1682,-0.1631,-0.158,-0.1584,-0.1628,-0.1632,-0.1635,-0.1637,0,-0.0717,-0.0751,-0.0819,-0.0848,-0.0872,-0.0835,-0.0897,-0.0908,-0.0953,-0.1086,-0.0991,-0.105,-0.1185,-0.1167,-0.1143,-0.1187,-0.1182,-0.1265,-0.1306,-0.1339,-0.1152,-0.1029,-0.0814,0,0,0,0,0,-0.0688,-0.0716,-0.0737,-0.0738,-0.0754,-0.0747,-0.0802,-0.0873,-0.0977,-0.0861,-0.094,-0.0873,-0.0865,-0.0871,-0.084,-0.0983,-0.1216,-0.0951,-0.1339,-0.1472,-0.1505,-0.1314,0,0,0,0,0,0,-0.0667,-0.0704,-0.0721,-0.0636,-0.0604,-0.0582,-0.0608,-0.0671,-0.0621,-0.073,-0.0697,-0.0812,-0.0789,-0.0834,-0.0804,-0.0826,-0.1059,-0.0997,-0.0995,-0.1454,-0.1483,-0.151,-0.1325,0,0,0,0,0]},{"header":{"parameterUnit":"m.s-1","parameterCategory":2,"la1":30.2991,"la2":30.254,"lo1":-89.0895,"lo2":-89.0444,"dy":0.0017,"dx":0.0017,"nx":28,"ny":28,"refTime":"2023-08-09T03:00:00:Z","depth":"4","parameterNumber":3,"parameterNumberName":"V-component_of_CURRENTS"},"data":[0,0,0,0,0,0,0,0,0,0,0,0,0,0,0,0,0,0,0,0,0,0,0,0,0,0,0,0,0,0,0,0,0,0,0,0,0,0,0,0,0,0,0,0,0,0,0,0,0,0,0,0,0,0,0,0,0,0,-0.0046,-0.0045,0,0.0043,0.0044,0.0044,0.0048,0.0047,0.0046,0.0046,0.0101,0.0103,0.0105,0,0,0,0,0,0,0,0,0,0,0,0,0,-0.0178,-0.0176,-0.0046,-0.0045,-0.0043,0.0043,0.0044,0.0044,0.0048,0.0047,0.0046,0.0045,0.01,0.0103,0.0105,0,0,0,0,0,0,0,0,0,0,0,0,0,-0.0112,-0.0176,-0.0046,-0.0029,-0.0026,0.0042,0.0044,0.0045,0.0048,0.0047,0.0046,0.0045,0.0099,0.0102,0.0106,0.0148,0,0,0.0116,0.0117,0,0,0,0,0,0,0,0,-0.0115,-0.0107,-0.0033,-0.003,-0.0026,0.0036,0.0017,0.0079,0.0049,0.0017,0.0046,0.0044,0.0079,0.0084,0.0099,0.0151,0.0153,0.0116,0.0118,0.0119,0.012,0,0,0,0,0,0,0,-0.012,-0.0111,-0.0014,-0.0031,-0.0027,-0.0013,-0.0006,0.0029,0.005,0.0019,0.0021,0.0036,0.008,0.0096,0.01,0.0154,0.0116,0.0119,0.0121,0.0122,0.0215,0.0215,0,0,0,0,0,0,-0.0124,-0.0115,-0.0017,-0.0011,-0.0071,-0.001,-0.0001,0.0014,0.005,0.0056,0.0037,0.0036,0.0091,0.0096,0.0102,0.0118,0.0119,0.0122,0.0124,0.0214,0.0215,0.0216,0,0,0,0,0,0,-0.0128,-0.0116,-0.0021,-0.0059,-0.0045,-0.0006,0.0012,0.0017,0.003,0.0065,0.0069,0.0044,0.009,0.0097,0.0136,0.0121,0.0124,0.0127,0.0214,0.0215,0.0215,0.0173,0,0,0,0,0,0,-0.0132,-0.0118,-0.0124,-0.0059,-0.0043,0.0004,0.0013,0.002,0.0043,0.0042,0.0073,0.0077,0.009,0.0131,0.0139,0.0126,0.0129,0.0213,0.0214,0.0215,0.0174,0.0172,0.0171,0,0,0,0,0,-0.0137,-0.0131,-0.0124,-0.0113,-0.0046,0.0004,0.0013,0.0035,0.0044,0.0043,0.0077,0.0075,0.0142,0.0135,0.0144,0.0131,0.0213,0.0214,0.0215,0.0174,0.0172,0.0171,0,0,0,0,0,0,-0.0176,-0.0128,-0.0119,-0.0096,-0.0059,0.0006,0.0014,0.0037,0.0066,0.0064,0.0096,0.0103,0.0122,0.0146,0.0137,0.0162,0.0172,0.0175,0.0138,0.0137,0.0135,0.0118,0.0132,0,0,0,0,0,-0.0189,-0.0177,-0.0125,-0.0103,-0.0088,-0.0036,-0.0016,0.0002,0.0046,0.0056,0.0083,0.0112,0.0138,0.0152,0.0175,0.0204,0.0231,0.0199,0.0198,0.0196,0.019,0.0232,0.0233,0.022,0.022,0.022,0,0,-0.0193,-0.0164,-0.0156,-0.0112,-0.0078,-0.0062,-0.0028,0.0005,0.0013,0.006,0.0077,0.0108,0.0145,0.0164,0.0175,0.0181,0.0217,0.0198,0.0196,0.0191,0.0233,0.0234,0.0235,0.022,0.022,0.022,0,0,-0.0187,-0.0172,-0.0166,-0.0143,-0.0101,-0.0077,-0.0069,-0.0014,-0.0005,0.0028,0.0057,0.0088,0.0131,0.0152,0.017,0.0182,0.0206,0.0185,0.0167,0.0207,0.0208,0.0209,0.025,0.0256,0.0187,0.0187,0.0187,0,-0.0198,-0.0181,-0.0154,-0.0141,-0.0133,-0.0087,-0.0085,-0.0058,-0.0,0.0001,0.002,0.0086,0.012,0.0146,0.0152,0.0175,0.0207,0.0166,0.0204,0.0205,0.0207,0.0249,0.0256,0.0185,0.0185,0.0186,0.0186,0,-0.0186,-0.0184,-0.0171,-0.0156,-0.015,-0.0131,-0.0103,-0.0096,-0.0077,-0.0053,-0.0027,0.0038,0.0072,0.0091,0.013,0.0158,0.018,0.0193,0.0202,0.0206,0.025,0.0258,0.0182,0.0183,0.0184,0.0184,0,0,-0.0194,-0.0171,-0.0175,-0.0189,-0.0163,-0.0159,-0.0157,-0.0151,-0.0168,-0.0108,-0.0117,-0.0038,-0.0002,0.0024,0.0079,0.0128,0.0182,0.017,0.0173,0.02,0.0278,0.0151,0.0147,0.0204,0.0205,0.0206,0.0304,0,-0.02,-0.0195,-0.0189,-0.0212,-0.0216,-0.0207,-0.0221,-0.0217,-0.0205,-0.0205,-0.0133,-0.0111,-0.0027,-0.0007,0.0057,0.0158,0.0199,0.0154,0.0279,0.0283,0.016,0.015,0.0209,0.031,0.0312,0.0313,0.0314,0,-0.021,-0.021,-0.0226,-0.0266,-0.0273,-0.0289,-0.0337,-0.0338,-0.0328,-0.0316,-0.027,-0.0215,-0.0113,-0.0063,0.0121,0.0094,0.0176,0.025,0.0255,0.0153,0.0168,0.0307,0.0328,0.0326,0.0325,0.0325,0.0324,0,-0.0245,-0.0256,-0.028,-0.0284,-0.0307,-0.034,-0.0362,-0.0377,-0.0402,-0.038,-0.0399,-0.027,-0.0215,-0.0068,0.01,0.0122,0.0269,0.0314,0.0271,0.0264,0.0371,0.0368,0.0396,0.0396,0.0396,0.0395,0.0395,0,-0.0265,-0.0294,-0.0304,-0.0314,-0.0384,-0.0391,-0.0465,-0.047,-0.0492,-0.0531,-0.0451,-0.0449,-0.0214,-0.0105,0.0063,0.0182,0.0247,0.0255,0.0271,0.0353,0.0347,0.0376,0.0373,0.0399,0.0398,0.0398,0.0397,0,-0.0305,-0.0296,-0.0338,-0.0373,-0.0394,-0.0452,-0.0528,-0.058,-0.0591,-0.0638,-0.063,-0.0553,-0.0427,-0.0235,-0.0008,0.0101,0.0245,0.0253,0.0312,0.0332,0.0233,0.0227,0.0245,0.0242,0.0238,0.0235,0.0233,0,-0.032,-0.0336,-0.0383,-0.0428,-0.045,-0.0528,-0.0585,-0.0616,-0.0652,-0.0704,-0.0717,-0.0662,-0.0593,-0.034,-0.0161,0.0093,0.0112,0.0209,0.0238,0.0199,0.0214,0.0213,0.0211,0.0228,0.0227,0.0226,0.0225,0,-0.0361,-0.0375,-0.0409,-0.0478,-0.0547,-0.0631,-0.0693,-0.0723,-0.0762,-0.0787,-0.0763,-0.0684,-0.0604,-0.0387,-0.0238,-0.0047,0.0179,0.0176,0.0186,0.0214,0.0179,0.0196,0.0198,0.0214,0.0216,0.0217,0.0217,0,-0.0397,-0.0439,-0.0468,-0.0539,-0.0632,-0.0702,-0.0733,-0.0757,-0.0786,-0.0797,-0.0794,-0.0721,-0.0642,-0.0471,-0.0316,-0.0171,-0.0118,0.0001,0.0021,0.0035,-0.0077,-0.0155,-0.0223,0,0,0,0,0,-0.0431,-0.0462,-0.0527,-0.0598,-0.069,-0.0727,-0.0796,-0.0812,-0.0837,-0.0807,-0.0786,-0.0709,-0.0561,-0.0505,-0.0378,-0.0406,-0.0119,-0.0257,0.0024,0.015,0.0164,0.0052,0,0,0,0,0,0,-0.0454,-0.0501,-0.052,-0.0625,-0.0684,-0.0777,-0.082,-0.0833,-0.0785,-0.0788,-0.0689,-0.0666,-0.0504,-0.0616,-0.0368,-0.0343,-0.0144,-0.0191,-0.0189,0.0143,0.0155,0.0166,0.0056,0,0,0,0,0]}]]